Weather observations for the past three days for
Phillips Army Air Field / Aberdeen
Imperial (Metric)
Date Time (edt) Wind (mph) Vis. (mi.) Weather Sky Cond. Temperature (ºF) Relative Humidity Wind Chill (°F) Heat Index (°F) Pressure Precipitation (in)
Air Dwpt 6 hour altimeter (in) sea level (mb) 1 hr 3 hr 6 hr
Max. Min.
05 12:50 S 16 10.00 Fair CLR 78.8 53.6 42% 79 29.87 0.0
05 11:55 SW 14 10.00 Fair CLR 75.4 52.5 45% 78 29.88 1012.1
05 10:55 SW 13 10.00 Fair CLR 72.5 51.6 48% 29.88 1012.1
05 09:55 SW 10 10.00 Fair CLR 71.1 51.4 50% 29.88 1012.1
05 08:55 SW 12 10.00 Partly Cloudy SCT200 67.6 50.4 54% 29.89 1012.4
05 07:55 SW 8 10.00 Partly Cloudy FEW090 SCT200 64.9 51.6 64.9 55.6 62% 29.89 1012.4
05 06:55 SW 5 10.00 Partly Cloudy FEW090 SCT200 59 52.5 79% 29.87 1011.7
05 05:58 S 3 10.00 Fair CLR 56.3 51.3 83% 29.86 1011.4
04 17:55 S 13 10.00 Fair CLR 73.4 42.8 33% 29.82 0.0
04 16:55 SW 15 G 21 10.00 Fair CLR 73.9 42.3 32% 29.83 1010.4
04 15:55 S 14 10.00 Fair CLR 73.4 41 31% 29.85 1011.1
04 14:55 SW 16 G 21 10.00 Fair CLR 71.6 41 33% 29.88 0.0
04 13:55 S 10 10.00 Fair CLR 71.6 41 33% 29.89 0.0
04 12:55 S 8 10.00 Fair CLR 69.8 41 35% 29.92 0.0
04 11:55 SW 12 10.00 Fair CLR 68 42.8 40% 29.94 1014.1
04 10:55 SW 7 10.00 Fair CLR 64.4 44.6 49% 29.95 1014.5
04 09:55 SW 8 10.00 Fair CLR 61.7 42.8 50% 29.96 1014.8
04 08:55 SW 13 10.00 A Few Clouds FEW150 59 41.4 52% 29.97 1015.2
04 06:55 Calm 9.00 Mostly Cloudy BKN110 39.7 37.9 93% 29.98 1015.5
04 05:55 Calm 9.00 Overcast SCT100 BKN130 OVC160 39.6 37.9 94% 29.98 1015.5
Date Time (edt) Wind (mph) Vis. (mi.) Weather Sky Cond. Air Dwpt Max. Min. Relative Humidity Wind Chill (°F) Heat Index (°F) altimeter (in) sea level (mb) 1 hr 3 hr 6 hr
6 hour
Temperature (ºF) Pressure Precipitation (in)